Dades meteomassalio
Diari Summary for Febrer 10, 2017 Units:  Metric    English   Both
« Previous Day
Next Day »
Diari Semanal Mensual Anual Personalitzat
  Maxima: Minima: Mijana:
Temperatura: -17.8 °C -18.3 °C -14.8 °C
Rosada: -17.8 °C -19 °C -16.8 °C
Humitat: Humidity % 52 % 79 %
Velocitat del vent: 0 km/h 0 km/h 5.5 km/h
Racha vent: 0 km/h - -
Vent:- - SE
Pressio: 0 hPa 34361.1 hPa -
Pluja: 0 mm    
Historical Graphs
 
 
Tabular Data for Febrer 10, 2017
Time Temperature Dew Point Pressure Wind Wind Speed Wind Gust Humidity Rainfall Rate (Hourly) solar Conditions
-17.8 °C -17.8 °C 0 hPa Calm     Humidity % 0 mm SolarRadiationWatts/m^2 W/m2 Conditions
00:00 -16.1 °C -17.6 °C 34418.7 hPa Calm     83 % 0 mm 0.0 W/m2 CLR
00:05 -16.1 °C -17.6 °C 34418.7 hPa Calm     83 % 0 mm 0.0 W/m2 CLR
00:10 -16.2 °C -17.6 °C 34418.7 hPa Calm     84 % 0 mm 0.0 W/m2 CLR
00:15 -16.2 °C -17.6 °C 34418.7 hPa Calm     84 % 0 mm 0.0 W/m2 CLR
00:20 -16.3 °C -17.6 °C 34418.7 hPa Calm     84 % 0 mm 0.0 W/m2 CLR
00:25 -16.3 °C -17.6 °C 34418.7 hPa Calm     85 % 0 mm 0.0 W/m2 CLR
00:30 -16.4 °C -17.7 °C 34418.7 hPa Calm     85 % 0 mm 0.0 W/m2 CLR
00:35 -16.4 °C -17.7 °C 34418.7 hPa Calm     85 % 0 mm 0.0 W/m2 CLR
00:40 -16.5 °C -17.7 °C 34418.7 hPa Calm     86 % 0 mm 0.0 W/m2 CLR
00:45 -16.6 °C -17.7 °C 34418.7 hPa Calm     86 % 0 mm 0.0 W/m2 CLR
00:50 -16.6 °C -17.8 °C 34418.7 hPa Calm     86 % 0 mm 0.0 W/m2 CLR
00:55 -16.7 °C -17.8 °C 34418.7 hPa Calm     86 % 0 mm 0.0 W/m2 CLR
01:00 -16.7 °C -17.8 °C 34405.1 hPa Calm     87 % 0 mm 0.0 W/m2 CLR
01:05 -16.8 °C -17.9 °C 34405.1 hPa Calm     87 % 0 mm 0.0 W/m2 CLR
01:10 -16.8 °C -17.9 °C 34405.1 hPa Calm     87 % 0 mm 0.0 W/m2 CLR
01:15 -16.9 °C -17.9 °C 34405.1 hPa Calm     87 % 0 mm 0.0 W/m2 CLR
01:21 -16.9 °C -17.9 °C 34405.1 hPa Calm     88 % 0 mm 0.0 W/m2 CLR
01:26 -16.9 °C -17.9 °C 34405.1 hPa Calm     88 % 0 mm 0.0 W/m2 CLR
01:31 -17 °C -17.9 °C 34395 hPa Calm     88 % 0 mm 0.0 W/m2 CLR
01:36 -17 °C -18 °C 34395 hPa Calm     88 % 0 mm 0.0 W/m2 CLR
01:41 -17.1 °C -17.9 °C 34395 hPa Calm     89 % 0 mm 0.0 W/m2 CLR
01:46 -17 °C -17.9 °C 34395 hPa Calm     89 % 0 mm 0.0 W/m2 CLR
01:51 -17 °C -17.9 °C 34395 hPa Calm     89 % 0 mm 0.0 W/m2 CLR
01:56 -17 °C -17.9 °C 34395 hPa Calm     89 % 0 mm 0.0 W/m2 CLR
02:01 -17.1 °C -17.9 °C 34395 hPa Calm     89 % 0 mm 0.0 W/m2 CLR
02:06 -17.1 °C -17.9 °C 34395 hPa Calm     89 % 0 mm 0.0 W/m2 CLR
02:11 -17.1 °C -17.9 °C 34395 hPa Calm     89 % 0 mm 0.0 W/m2 CLR
02:16 -17.1 °C -17.9 °C 34395 hPa Calm     89 % 0 mm 0.0 W/m2 CLR
02:21 -17.1 °C -17.9 °C 34395 hPa Calm     89 % 0 mm 0.0 W/m2 CLR
02:26 -17.1 °C -17.8 °C 34395 hPa Calm     90 % 0 mm 0.0 W/m2 CLR
02:31 -17.1 °C -17.9 °C 34395 hPa Calm     89 % 0 mm 0.0 W/m2 CLR
02:41 -17.1 °C -18 °C 34395 hPa Calm     89 % 0 mm 0.0 W/m2 CLR
02:46 -17.1 °C -18 °C 34395 hPa Calm     89 % 0 mm 0.0 W/m2 CLR
02:49 -17.1 °C -18 °C 34405.1 hPa Calm     89 % 0 mm 0.0 W/m2 CLR
02:54 -17.2 °C -18.1 °C 34405.1 hPa Calm     89 % 0 mm 0.0 W/m2 CLR
02:59 -17.2 °C -17.9 °C 34405.1 hPa Calm     90 % 0 mm 0.0 W/m2 CLR
03:04 -17.2 °C -18 °C 34405.1 hPa Calm     90 % 0 mm 0.0 W/m2 CLR
03:09 -17.2 °C -18 °C 34405.1 hPa Calm     90 % 0 mm 0.0 W/m2 CLR
03:12 -17.2 °C -17.9 °C 34405.1 hPa Calm     90 % 0 mm 0.0 W/m2 CLR
03:17 -17.2 °C -17.9 °C 34405.1 hPa Calm     90 % 0 mm 0.0 W/m2 CLR
03:22 -17.1 °C -18 °C 34405.1 hPa Calm     89 % 0 mm 0.0 W/m2 CLR
03:27 -17.2 °C -18.1 °C 34395 hPa Calm     89 % 0 mm 0.0 W/m2 CLR
03:32 -17.3 °C -18.2 °C 34395 hPa Calm     89 % 0 mm 0.0 W/m2 CLR
03:37 -17.3 °C -18.2 °C 34395 hPa Calm     89 % 0 mm 0.0 W/m2 CLR
03:38 -17.3 °C -18.2 °C 34395 hPa Calm     89 % 0 mm 0.0 W/m2 CLR
03:43 -17.4 °C -18.4 °C 34395 hPa Calm     89 % 0 mm 0.0 W/m2 CLR
03:48 -17.4 °C -18.3 °C 34395 hPa Calm     90 % 0 mm 0.0 W/m2 CLR
03:53 -17.4 °C -18.3 °C 34395 hPa Calm     90 % 0 mm 0.0 W/m2 CLR
03:58 -17.5 °C -18.3 °C 34395 hPa Calm     90 % 0 mm 0.0 W/m2 CLR
04:03 -17.6 °C -18.3 °C 34395 hPa Calm     90 % 0 mm 0.0 W/m2 CLR
04:08 -17.6 °C -18.4 °C 34395 hPa Calm     90 % 0 mm 0.0 W/m2 CLR
04:13 -17.7 °C -18.6 °C 34395 hPa Calm     89 % 0 mm 0.0 W/m2 CLR
04:18 -17.7 °C -18.5 °C 34384.8 hPa Calm     90 % 0 mm 0.0 W/m2 CLR
04:23 -17.7 °C -18.5 °C 34384.8 hPa Calm     90 % 0 mm 0.0 W/m2 CLR
04:28 -17.8 °C -18.6 °C 34395 hPa Calm     90 % 0 mm 0.0 W/m2 CLR
04:33 -17.9 °C -18.7 °C 34395 hPa Calm     90 % 0 mm 0.0 W/m2 CLR
04:38 -17.9 °C -18.7 °C 34384.8 hPa Calm     90 % 0 mm 0.0 W/m2 CLR
04:43 -17.9 °C -18.7 °C 34395 hPa Calm     90 % 0 mm 0.0 W/m2 CLR
04:48 -17.9 °C -18.7 °C 34384.8 hPa Calm     90 % 0 mm 0.0 W/m2 CLR
04:53 -18 °C -18.8 °C 34395 hPa Calm     90 % 0 mm 0.0 W/m2 CLR
04:58 -18 °C -18.8 °C 34395 hPa Calm     90 % 0 mm 0.0 W/m2 CLR
05:03 -18.1 °C -18.9 °C 34384.8 hPa Calm     90 % 0 mm 0.0 W/m2 CLR
05:08 -18.1 °C -18.9 °C 34384.8 hPa Calm     90 % 0 mm 0.0 W/m2 CLR
05:13 -18.1 °C -18.9 °C 34384.8 hPa Calm     90 % 0 mm 0.0 W/m2 CLR
05:18 -18.2 °C -18.8 °C 34384.8 hPa Calm     91 % 0 mm 0.0 W/m2 CLR
05:23 -18.2 °C -18.9 °C 34384.8 hPa Calm     91 % 0 mm 0.0 W/m2 CLR
05:28 -18.2 °C -18.9 °C 34384.8 hPa Calm     91 % 0 mm 0.0 W/m2 CLR
05:33 -18.2 °C -18.9 °C 34384.8 hPa Calm     91 % 0 mm 0.0 W/m2 CLR
05:38 -18.2 °C -18.9 °C 34384.8 hPa Calm     91 % 0 mm 0.0 W/m2 CLR
05:43 -18.3 °C -19 °C 34384.8 hPa Calm     91 % 0 mm 0.0 W/m2 CLR
05:48 -18.3 °C -19 °C 34384.8 hPa Calm     91 % 0 mm 0.0 W/m2 CLR
05:53 -18.3 °C -19 °C 34384.8 hPa Calm     91 % 0 mm 0.0 W/m2 CLR
05:58 -18.3 °C -19 °C 34384.8 hPa Calm     91 % 0 mm 0.0 W/m2 CLR
06:03 -18.2 °C -18.9 °C 34371.3 hPa Calm     91 % 0 mm 0.0 W/m2 CLR
06:08 -18.2 °C -18.9 °C 34371.3 hPa Calm     91 % 0 mm 0.0 W/m2 CLR
06:13 -18.2 °C -18.9 °C 34371.3 hPa Calm     91 % 0 mm 0.0 W/m2 CLR
06:18 -18.2 °C -18.9 °C 34371.3 hPa Calm     91 % 0 mm 0.0 W/m2 CLR
06:23 -18.2 °C -18.8 °C 34371.3 hPa Calm     91 % 0 mm 0.0 W/m2 CLR
06:28 -18.1 °C -18.8 °C 34371.3 hPa Calm     91 % 0 mm 0.0 W/m2 CLR
06:33 -18.1 °C -18.8 °C 34371.3 hPa Calm     91 % 0 mm 0.0 W/m2 CLR
06:38 -18.1 °C -18.8 °C 34371.3 hPa Calm     91 % 0 mm 0.0 W/m2 CLR
06:43 -18.1 °C -18.8 °C 34371.3 hPa Calm     91 % 0 mm 0.0 W/m2 CLR
06:48 -18.1 °C -18.8 °C 34384.8 hPa Calm     91 % 0 mm 0.0 W/m2 CLR
06:53 -18.1 °C -18.8 °C 34384.8 hPa Calm     91 % 0 mm 0.0 W/m2 CLR
06:58 -18.1 °C -18.8 °C 34384.8 hPa Calm     91 % 0 mm 0.0 W/m2 CLR
07:03 -18.1 °C -18.8 °C 34384.8 hPa Calm     91 % 0 mm 0.0 W/m2 CLR
07:09 -18.1 °C -18.8 °C 34384.8 hPa Calm     91 % 0 mm 0.0 W/m2 CLR
07:14 -18.1 °C -18.9 °C 34384.8 hPa Calm     90 % 0 mm 0.0 W/m2 CLR
07:19 -18.1 °C -18.8 °C 34384.8 hPa Calm     91 % 0 mm 0.0 W/m2 CLR
07:24 -18.1 °C -18.8 °C 34384.8 hPa Calm     91 % 0 mm 0.0 W/m2 CLR
07:29 -18.1 °C -18.8 °C 34384.8 hPa Calm     90 % 0 mm 0.0 W/m2 CLR
07:34 -18.1 °C -18.8 °C 34384.8 hPa Calm     90 % 0 mm 0.0 W/m2 CLR
07:39 -18.1 °C -18.8 °C 34384.8 hPa Calm     90 % 0 mm 0.0 W/m2 CLR
07:44 -18 °C -18.8 °C 34395 hPa Calm     90 % 0 mm 0.0 W/m2 CLR
07:49 -18 °C -18.8 °C 34395 hPa Calm     90 % 0 mm 0.0 W/m2 CLR
07:54 -18 °C -18.8 °C 34395 hPa Calm     90 % 0 mm 0.0 W/m2 CLR
07:59 -18.1 °C -18.8 °C 34395 hPa Calm     90 % 0 mm 0.0 W/m2 CLR
08:04 -18.1 °C -18.9 °C 34405.1 hPa Calm     90 % 0 mm 5.0 W/m2 OVC
08:09 -18.2 °C -18.9 °C 34405.1 hPa Calm     90 % 0 mm 5.0 W/m2 OVC
08:14 -18.2 °C -18.9 °C 34405.1 hPa Calm     90 % 0 mm 9.0 W/m2 BKN
08:19 -18.2 °C -19 °C 34405.1 hPa Calm     90 % 0 mm 12.0 W/m2 BKN
08:24 -18.2 °C -19 °C 34405.1 hPa Calm     90 % 0 mm 18.0 W/m2 BKN
08:28 -18.2 °C -19 °C 34418.7 hPa Calm     90 % 0 mm 21.0 W/m2 BKN
08:33 -18.2 °C -18.8 °C 34418.7 hPa Calm     91 % 0 mm 28.0 W/m2 BKN
08:38 -18.2 °C -18.8 °C 34418.7 hPa Calm     91 % 0 mm 35.0 W/m2 BKN
08:43 -18.1 °C -18.8 °C 34418.7 hPa Calm     91 % 0 mm 44.0 W/m2 BKN
08:48 -18.1 °C -18.8 °C 34418.7 hPa Calm     91 % 0 mm 51.0 W/m2 SCT
08:53 -18 °C -18.7 °C 34418.7 hPa Calm     91 % 0 mm 62.0 W/m2 SCT
08:58 -17.9 °C -18.7 °C 34418.7 hPa Calm     91 % 0 mm 79.0 W/m2 FEW
09:03 -17.9 °C -18.6 °C 34418.7 hPa Calm     91 % 0 mm 91.0 W/m2 FEW
09:08 -17.8 °C -18.5 °C 34418.7 hPa Calm     91 % 0 mm 84.0 W/m2 CLR
09:13 -17.7 °C -18.4 °C 34418.7 hPa Calm     91 % 0 mm 93.0 W/m2 CLR
09:18 -17.7 °C -18.4 °C 34418.7 hPa Calm     91 % 0 mm 98.0 W/m2 CLR
09:23 -17.6 °C -18.3 °C 34418.7 hPa Calm     91 % 0 mm 111.0 W/m2 CLR
09:28 -17.4 °C -18.3 °C 34418.7 hPa Calm     90 % 0 mm 118.0 W/m2 CLR
09:33 -17.3 °C -18.2 °C 34418.7 hPa Calm     90 % 0 mm 128.0 W/m2 CLR
09:39 -17.2 °C -18 °C 34418.7 hPa Calm     90 % 0 mm 144.0 W/m2 CLR
09:44 -17.1 °C -17.9 °C 34418.7 hPa Calm     90 % 0 mm 171.0 W/m2 CLR
09:49 -17 °C -17.8 °C 34418.7 hPa Calm     90 % 0 mm 223.0 W/m2 CLR
09:54 -16.8 °C -17.7 °C 34418.7 hPa Calm     89 % 0 mm 287.0 W/m2 CLR
09:59 -16.6 °C -17.4 °C 34418.7 hPa Calm     90 % 0 mm 288.0 W/m2 CLR
10:04 -16.2 °C -17.1 °C 34418.7 hPa Calm     89 % 0 mm 274.0 W/m2 CLR
10:09 -15.9 °C -17.1 °C 34418.7 hPa Calm     87 % 0 mm 346.0 W/m2 CLR
10:14 -15.7 °C -16.9 °C 34418.7 hPa Calm     86 % 0 mm 318.0 W/m2 CLR
10:19 -15.5 °C -16.8 °C 34428.8 hPa Calm     85 % 0 mm 264.0 W/m2 CLR
10:24 -15.2 °C -16.6 °C 34428.8 hPa Calm     84 % 0 mm 253.0 W/m2 CLR
10:29 -15.1 °C -16.6 °C 34428.8 hPa Calm     82 % 0 mm 267.0 W/m2 CLR
10:34 -14.8 °C -16.4 °C 34428.8 hPa Calm     82 % 0 mm 353.0 W/m2 CLR
10:39 -14.5 °C -16.2 °C 34428.8 hPa Calm     81 % 0 mm 309.0 W/m2 CLR
10:44 -14.3 °C -16.1 °C 34428.8 hPa Calm     80 % 0 mm 338.0 W/m2 CLR
10:49 -14 °C -15.9 °C 34428.8 hPa Calm     79 % 0 mm 387.0 W/m2 CLR
10:54 -13.7 °C -15.7 °C 34428.8 hPa Calm     78 % 0 mm 469.0 W/m2 CLR
10:59 -13.3 °C -15.4 °C 34428.8 hPa Calm     77 % 0 mm 406.0 W/m2 CLR
11:04 -13 °C -15.3 °C 34428.8 hPa Calm     75 % 0 mm 413.0 W/m2 CLR
11:09 -12.7 °C -15.1 °C 34428.8 hPa Calm     75 % 0 mm 348.0 W/m2 CLR
11:14 -12.4 °C -14.9 °C 34428.8 hPa Calm     74 % 0 mm 403.0 W/m2 CLR
11:19 -12.3 °C -14.8 °C 34428.8 hPa Calm     73 % 0 mm 415.0 W/m2 CLR
11:24 -12.1 °C -14.8 °C 34428.8 hPa Calm     72 % 0 mm 366.0 W/m2 CLR
11:29 -12 °C -14.8 °C 34428.8 hPa Calm     71 % 0 mm 350.0 W/m2 CLR
11:34 -11.8 °C -14.8 °C 34428.8 hPa Calm     70 % 0 mm 399.0 W/m2 CLR
11:39 -11.8 °C -14.7 °C 34428.8 hPa Calm     70 % 0 mm 445.0 W/m2 CLR
11:44 -11.6 °C -14.6 °C 34428.8 hPa Calm     70 % 0 mm 469.0 W/m2 CLR
11:49 -11.4 °C -14.7 °C 34428.8 hPa Calm     67 % 0 mm 410.0 W/m2 CLR
11:54 -11.3 °C -14.8 °C 34428.8 hPa Calm     66 % 0 mm 352.0 W/m2 CLR
11:59 -11.3 °C -14.7 °C 34428.8 hPa Calm     66 % 0 mm 413.0 W/m2 CLR
12:04 -11.2 °C -14.7 °C 34428.8 hPa Calm     65 % 0 mm 568.0 W/m2 CLR
12:09 -10.9 °C -14.8 °C 34418.7 hPa ENE 12.9 km/h 12.9 km/h 63 % 0 mm 490.0 W/m2 CLR
12:14 -10.9 °C -14.9 °C 34418.7 hPa East 15.6 km/h 15.6 km/h 62 % 0 mm 526.0 W/m2 CLR
12:19 -10.9 °C -15.2 °C 34418.7 hPa East 6 km/h 6 km/h 60 % 0 mm 584.0 W/m2 CLR
12:24 -10.9 °C -15.1 °C 34405.1 hPa East 9 km/h 9 km/h 60 % 0 mm 503.0 W/m2 CLR
12:29 -10.9 °C -15.2 °C 34405.1 hPa East 9 km/h 9 km/h 59 % 0 mm 457.0 W/m2 CLR
12:34 -10.8 °C -15.4 °C 34405.1 hPa SE 11.9 km/h 11.9 km/h 57 % 0 mm 492.0 W/m2 CLR
12:39 -10.8 °C -15.7 °C 34405.1 hPa SSE 20.9 km/h 20.9 km/h 55 % 0 mm 431.0 W/m2 CLR
12:44 -10.8 °C -15.7 °C 34405.1 hPa SSE 35.7 km/h 35.7 km/h 55 % 0 mm 443.0 W/m2 CLR
12:49 -10.8 °C -15.4 °C 34405.1 hPa SSE 20.9 km/h 20.9 km/h 57 % 0 mm 480.0 W/m2 CLR
12:54 -10.8 °C -15.4 °C 34405.1 hPa SSE 18.2 km/h 18.2 km/h 57 % 0 mm 496.0 W/m2 CLR
12:59 -10.7 °C -15.3 °C 34405.1 hPa SSE 26.9 km/h 26.9 km/h 57 % 0 mm 534.0 W/m2 CLR
13:04 -10.7 °C -15.4 °C 34405.1 hPa SSE 31.1 km/h 31.1 km/h 56 % 0 mm 577.0 W/m2 CLR
13:09 -10.7 °C -15.3 °C 34405.1 hPa South 9 km/h 9 km/h 57 % 0 mm 506.0 W/m2 CLR
13:14 -10.5 °C -15.3 °C 34405.1 hPa South 26.9 km/h 26.9 km/h 56 % 0 mm 522.0 W/m2 CLR
13:19 -10.6 °C -15.4 °C 34395 hPa South 32.8 km/h 32.8 km/h 55 % 0 mm 485.0 W/m2 CLR
13:24 -10.6 °C -15.4 °C 34395 hPa South 20.9 km/h 20.9 km/h 56 % 0 mm 517.0 W/m2 CLR
13:29 -10.6 °C -15.4 °C 34395 hPa South 17.9 km/h 17.9 km/h 55 % 0 mm 536.0 W/m2 CLR
13:34 -10.6 °C -15.5 °C 34395 hPa South 17.9 km/h 17.9 km/h 55 % 0 mm 489.0 W/m2 CLR
13:39 -10.5 °C -15.4 °C 34395 hPa SSE 26.9 km/h 26.9 km/h 55 % 0 mm 512.0 W/m2 CLR
13:44 -10.5 °C -15.7 °C 34395 hPa SSE 17.9 km/h 22.2 km/h 53 % 0 mm 524.0 W/m2 CLR
13:49 -10.5 °C -15.7 °C 34395 hPa SSE 26.9 km/h 26.9 km/h 53 % 0 mm 571.0 W/m2 CLR
13:54 -10.5 °C -15.7 °C 34384.8 hPa South 38.8 km/h 38.8 km/h 53 % 0 mm 320.0 W/m2 CLR
13:59 -10.6 °C -15.8 °C 34384.8 hPa SSW 26.9 km/h 26.9 km/h 53 % 0 mm 364.0 W/m2 CLR
14:04 -10.6 °C -15.8 °C 34384.8 hPa South 23.8 km/h 23.8 km/h 53 % 0 mm 387.0 W/m2 CLR
14:09 -10.6 °C -15.8 °C 34384.8 hPa SE 26.9 km/h 26.9 km/h 53 % 0 mm 396.0 W/m2 CLR
14:14 -10.5 °C -15.7 °C 34384.8 hPa SE 17.9 km/h 17.9 km/h 53 % 0 mm 455.0 W/m2 CLR
14:19 -10.4 °C -15.8 °C 34384.8 hPa SSE 23.8 km/h 23.8 km/h 52 % 0 mm 330.0 W/m2 CLR
14:24 -10.6 °C -15.9 °C 34384.8 hPa SSE 28.5 km/h 28.5 km/h 52 % 0 mm 253.0 W/m2 CLR
14:30 -10.7 °C -16.1 °C 34384.8 hPa South 15.6 km/h 15.6 km/h 52 % 0 mm 236.0 W/m2 CLR
14:35 -10.8 °C -16 °C 34371.3 hPa SSE 15 km/h 15 km/h 53 % 0 mm 260.0 W/m2 CLR
14:40 -10.8 °C -15.8 °C 34371.3 hPa SSE 26.9 km/h 26.9 km/h 54 % 0 mm 244.0 W/m2 CLR
14:45 -10.8 °C -15.9 °C 34384.8 hPa South 23.8 km/h 23.8 km/h 54 % 0 mm 237.0 W/m2 CLR
14:50 -10.8 °C -15.7 °C 34384.8 hPa SSW 15 km/h 15 km/h 55 % 0 mm 234.0 W/m2 CLR
14:55 -10.9 °C -15.6 °C 34384.8 hPa South 12.9 km/h 12.9 km/h 56 % 0 mm 223.0 W/m2 CLR
15:00 -10.9 °C -15.7 °C 34371.3 hPa South 15 km/h 15 km/h 56 % 0 mm 221.0 W/m2 CLR
15:05 -10.9 °C -15.8 °C 34371.3 hPa South 23.3 km/h 23.3 km/h 55 % 0 mm 211.0 W/m2 CLR
15:10 -10.9 °C -15.7 °C 34384.8 hPa South 23.8 km/h 23.8 km/h 56 % 0 mm 195.0 W/m2 CLR
15:15 -10.9 °C -15.7 °C 34384.8 hPa South 20.9 km/h 20.9 km/h 56 % 0 mm 183.0 W/m2 CLR
15:20 -10.9 °C -15.2 °C 34384.8 hPa South 20.9 km/h 20.9 km/h 60 % 0 mm 179.0 W/m2 CLR
15:25 -11.1 °C -14.6 °C 34371.3 hPa SE 18.2 km/h 18.2 km/h 65 % 0 mm 174.0 W/m2 CLR
15:30 -11.3 °C -14.7 °C 34371.3 hPa ESE 23.8 km/h 23.8 km/h 66 % 0 mm 172.0 W/m2 CLR
15:35 -11.3 °C -14.6 °C 34371.3 hPa SE 29.8 km/h 29.8 km/h 67 % 0 mm 171.0 W/m2 CLR
15:40 -11.3 °C -14.7 °C 34371.3 hPa ESE 20.8 km/h 20.8 km/h 67 % 0 mm 163.0 W/m2 CLR
15:45 -11.4 °C -14.7 °C 34371.3 hPa ESE 20.9 km/h 20.9 km/h 67 % 0 mm 183.0 W/m2 CLR
15:50 -11.4 °C -14.7 °C 34371.3 hPa ESE 23.8 km/h 23.8 km/h 67 % 0 mm 257.0 W/m2 CLR
15:55 -11.3 °C -14.6 °C 34371.3 hPa ESE 23.3 km/h 23.3 km/h 68 % 0 mm 279.0 W/m2 CLR
16:00 -11.3 °C -14.5 °C 34361.1 hPa ESE 20.8 km/h 20.8 km/h 68 % 0 mm 257.0 W/m2 CLR
16:05 -11.3 °C -14.6 °C 34361.1 hPa ESE 20.9 km/h 20.9 km/h 68 % 0 mm 213.0 W/m2 CLR
16:10 -11.4 °C -14.6 °C 34371.3 hPa ESE 20.9 km/h 20.9 km/h 68 % 0 mm 193.0 W/m2 CLR
16:15 -11.3 °C -14.4 °C 34361.1 hPa ESE 9 km/h 9 km/h 69 % 0 mm 274.0 W/m2 CLR
16:20 -11.2 °C -14.4 °C 34371.3 hPa ESE 10.3 km/h 10.3 km/h 68 % 0 mm 357.0 W/m2 CLR
16:25 -11.2 °C -14.7 °C 34361.1 hPa SE 20.9 km/h 20.9 km/h 65 % 0 mm 338.0 W/m2 CLR
16:30 -11.1 °C -14.5 °C 34361.1 hPa SE 20.9 km/h 20.9 km/h 66 % 0 mm 257.0 W/m2 CLR
16:35 -11.2 °C -14.5 °C 34361.1 hPa ESE 11.9 km/h 11.9 km/h 67 % 0 mm 209.0 W/m2 CLR
16:40 -11.2 °C -14.6 °C 34361.1 hPa ESE 15 km/h 15 km/h 66 % 0 mm 237.0 W/m2 CLR
16:45 -11.2 °C -14.6 °C 34361.1 hPa ESE 17.9 km/h 17.9 km/h 66 % 0 mm 183.0 W/m2 CLR
16:50 -11.2 °C -14.7 °C 34361.1 hPa ESE 20.9 km/h 20.9 km/h 66 % 0 mm 176.0 W/m2 CLR
16:55 -11.3 °C -14.6 °C 34361.1 hPa ESE 12.9 km/h 12.9 km/h 67 % 0 mm 174.0 W/m2 CLR
17:00 -11.3 °C -14.6 °C 34361.1 hPa ESE 15 km/h 15 km/h 67 % 0 mm 132.0 W/m2 CLR
17:05 -11.3 °C -14.6 °C 34361.1 hPa ESE 20.9 km/h 20.9 km/h 67 % 0 mm 174.0 W/m2 CLR
17:10 -11.3 °C -14.6 °C 34361.1 hPa ESE 15 km/h 15 km/h 68 % 0 mm 146.0 W/m2 CLR
17:15 -11.4 °C -14.7 °C 34361.1 hPa ESE 10.3 km/h 10.3 km/h 67 % 0 mm 84.0 W/m2 CLR
17:20 -11.5 °C -14.7 °C 34361.1 hPa SE 17.9 km/h 17.9 km/h 68 % 0 mm 79.0 W/m2 CLR
17:25 -11.5 °C -14.8 °C 34361.1 hPa SE 10.3 km/h 10.3 km/h 67 % 0 mm 114.0 W/m2 CLR
17:28 -11.5 °C -14.7 °C 34371.3 hPa SE 20.9 km/h 20.9 km/h 68 % 0 mm 109.0 W/m2 CLR
17:33 -11.6 °C -14.7 °C 34371.3 hPa ESE 11.9 km/h 11.9 km/h 69 % 0 mm 100.0 W/m2 CLR
17:38 -11.7 °C -14.7 °C 34371.3 hPa ESE 12.9 km/h 13.2 km/h 69 % 0 mm 70.0 W/m2 FEW
17:43 -11.7 °C -14.8 °C 34371.3 hPa ESE 17.9 km/h 17.9 km/h 69 % 0 mm 56.0 W/m2 SCT
17:48 -11.8 °C -14.7 °C 34371.3 hPa ESE 15 km/h 15 km/h 70 % 0 mm 58.0 W/m2 SCT
17:53 -11.8 °C -14.8 °C 34371.3 hPa SE 12.9 km/h 12.9 km/h 70 % 0 mm 47.0 W/m2 SCT
17:58 -11.9 °C -14.8 °C 34371.3 hPa SE 7.7 km/h 7.7 km/h 70 % 0 mm 35.0 W/m2 BKN
18:00 -11.9 °C -14.7 °C 34384.8 hPa SE 10.3 km/h 10.3 km/h 71 % 0 mm 30.0 W/m2 BKN
18:05 -12 °C -14.9 °C 34384.8 hPa SE 15 km/h 15 km/h 70 % 0 mm 23.0 W/m2 BKN
18:09 -12.1 °C -14.9 °C 34384.8 hPa SE 15 km/h 15 km/h 70 % 0 mm 19.0 W/m2 BKN
18:11 -12.1 °C -14.9 °C 34384.8 hPa ESE 11.9 km/h 11.9 km/h 70 % 0 mm 18.0 W/m2 BKN
18:14 -12.1 °C -14.9 °C 34384.8 hPa ESE 12.9 km/h 12.9 km/h 71 % 0 mm 14.0 W/m2 BKN
18:16 -12.1 °C -14.9 °C 34384.8 hPa ESE 15 km/h 15 km/h 71 % 0 mm 14.0 W/m2 BKN
18:21 -12.2 °C -14.9 °C 34395 hPa ESE 17.9 km/h 17.9 km/h 72 % 0 mm 9.0 W/m2 BKN
18:25 -12.3 °C -14.9 °C 34395 hPa SE 11.9 km/h 11.9 km/h 72 % 0 mm 5.0 W/m2 OVC
18:28 -12.3 °C -14.9 °C 34395 hPa SE 11.9 km/h 11.9 km/h 73 % 0 mm 0.0 W/m2 OVC
18:30 -12.4 °C -14.9 °C 34395 hPa SE 15 km/h 15 km/h 73 % 0 mm 0.0 W/m2 OVC
18:35 -12.4 °C -15.1 °C 34395 hPa SE 9 km/h 9 km/h 73 % 0 mm 0.0 W/m2 OVC
18:40 -12.6 °C -15 °C 34395 hPa SE 9 km/h 9 km/h 74 % 0 mm 0.0 W/m2 CLR
18:45 -12.6 °C -15.1 °C 34395 hPa SE 3.1 km/h   74 % 0 mm 0.0 W/m2 CLR
18:48 -12.7 °C -15.1 °C 34395 hPa Calm     74 % 0 mm 0.0 W/m2 CLR
18:50 -12.7 °C -15.1 °C 34395 hPa ESE 9 km/h 9 km/h 75 % 0 mm 0.0 W/m2 CLR
18:55 -12.8 °C -15.1 °C 34395 hPa Calm     75 % 0 mm 0.0 W/m2 CLR
19:00 -12.9 °C -15.2 °C 34395 hPa SE 9 km/h 9 km/h 75 % 0 mm 0.0 W/m2 CLR
19:05 -12.9 °C -15.2 °C 34395 hPa Calm     76 % 0 mm 0.0 W/m2 CLR
19:10 -13 °C -15.2 °C 34405.1 hPa Calm     76 % 0 mm 0.0 W/m2 CLR
19:15 -13.1 °C -15.2 °C 34405.1 hPa SSE 7.7 km/h 7.7 km/h 77 % 0 mm 0.0 W/m2 CLR
19:20 -13.2 °C -15.2 °C 34405.1 hPa SE 9 km/h 9 km/h 77 % 0 mm 0.0 W/m2 CLR
19:25 -13.2 °C -15.2 °C 34405.1 hPa ESE 3.1 km/h 3.1 km/h 78 % 0 mm 0.0 W/m2 CLR
19:30 -13.2 °C -15.2 °C 34418.7 hPa ESE 9 km/h 9 km/h 78 % 0 mm 0.0 W/m2 CLR
19:35 -13.2 °C -15.2 °C 34418.7 hPa SE 9 km/h 9 km/h 78 % 0 mm 0.0 W/m2 CLR
19:40 -13.3 °C -15.3 °C 34418.7 hPa SE 6 km/h 6 km/h 78 % 0 mm 0.0 W/m2 CLR
19:45 -13.3 °C -15.3 °C 34418.7 hPa Calm     78 % 0 mm 0.0 W/m2 CLR
19:50 -13.4 °C -15.3 °C 34418.7 hPa ESE 6 km/h 6 km/h 79 % 0 mm 0.0 W/m2 CLR
19:55 -13.5 °C -15.4 °C 34418.7 hPa ESE 6 km/h 6 km/h 79 % 0 mm 0.0 W/m2 CLR
20:00 -13.7 °C -15.4 °C 34418.7 hPa Calm     80 % 0 mm 0.0 W/m2 CLR
20:05 -13.7 °C -15.5 °C 34428.8 hPa Calm     80 % 0 mm 0.0 W/m2 CLR
20:11 -13.8 °C -15.4 °C 34418.7 hPa Calm     81 % 0 mm 0.0 W/m2 CLR
20:16 -13.8 °C -15.5 °C 34418.7 hPa Calm     81 % 0 mm 0.0 W/m2 CLR
20:20 -13.8 °C -15.6 °C 34428.8 hPa Calm     81 % 0 mm 0.0 W/m2 CLR
20:26 -13.9 °C -15.7 °C 34418.7 hPa Calm     81 % 0 mm 0.0 W/m2 CLR
20:31 -14 °C -15.7 °C 34428.8 hPa Calm     81 % 0 mm 0.0 W/m2 CLR
20:36 -14 °C -15.7 °C 34428.8 hPa Calm     81 % 0 mm 0.0 W/m2 CLR
20:41 -14.1 °C -15.7 °C 34428.8 hPa Calm     81 % 0 mm 0.0 W/m2 CLR
20:46 -14.1 °C -15.8 °C 34428.8 hPa Calm     81 % 0 mm 0.0 W/m2 CLR
20:51 -14.1 °C -15.7 °C 34428.8 hPa Calm     82 % 0 mm 0.0 W/m2 CLR
20:56 -14.2 °C -15.9 °C 34428.8 hPa Calm     81 % 0 mm 0.0 W/m2 CLR
21:01 -14.3 °C -16 °C 34442.4 hPa Calm     81 % 0 mm 0.0 W/m2 CLR
21:06 -14.6 °C -16.2 °C 34442.4 hPa Calm     82 % 0 mm 0.0 W/m2 CLR
21:11 -14.7 °C -16.1 °C 34442.4 hPa Calm     84 % 0 mm 0.0 W/m2 CLR
21:16 -14.7 °C -16.1 °C 34442.4 hPa Calm     84 % 0 mm 0.0 W/m2 CLR
21:21 -14.8 °C -16.2 °C 34442.4 hPa Calm     84 % 0 mm 0.0 W/m2 CLR
21:26 -14.9 °C -16.3 °C 34452.6 hPa Calm     84 % 0 mm 0.0 W/m2 CLR
21:31 -15.1 °C -16.3 °C 34452.6 hPa Calm     85 % 0 mm 0.0 W/m2 CLR
21:36 -15.1 °C -16.3 °C 34452.6 hPa Calm     86 % 0 mm 0.0 W/m2 CLR
21:41 -15.1 °C -16.3 °C 34452.6 hPa Calm     86 % 0 mm 0.0 W/m2 CLR
21:46 -15.2 °C -16.3 °C 34452.6 hPa Calm     86 % 0 mm 0.0 W/m2 CLR
21:51 -15.3 °C -16.6 °C 34452.6 hPa Calm     85 % 0 mm 0.0 W/m2 CLR
21:56 -15.4 °C -16.7 °C 34452.6 hPa Calm     85 % 0 mm 0.0 W/m2 CLR
22:01 -15.6 °C -16.7 °C 34452.6 hPa Calm     86 % 0 mm 0.0 W/m2 CLR
22:06 -15.6 °C -16.6 °C 34452.6 hPa Calm     87 % 0 mm 0.0 W/m2 CLR
22:11 -15.6 °C -16.6 °C 34452.6 hPa Calm     88 % 0 mm 0.0 W/m2 CLR
22:16 -15.7 °C -16.9 °C 34452.6 hPa Calm     86 % 0 mm 0.0 W/m2 CLR
22:21 -15.9 °C -16.9 °C 34452.6 hPa Calm     87 % 0 mm 0.0 W/m2 CLR
22:26 -16 °C -17.1 °C 34452.6 hPa Calm     87 % 0 mm 0.0 W/m2 CLR
22:31 -16.1 °C -17.1 °C 34452.6 hPa Calm     88 % 0 mm 0.0 W/m2 CLR
22:36 -16.1 °C -17.1 °C 34452.6 hPa Calm     88 % 0 mm 0.0 W/m2 CLR
22:41 -16.2 °C -17.1 °C 34462.7 hPa Calm     89 % 0 mm 0.0 W/m2 CLR
22:46 -16.2 °C -17.2 °C 34462.7 hPa Calm     88 % 0 mm 0.0 W/m2 CLR
22:51 -16.2 °C -17.1 °C 34462.7 hPa Calm     89 % 0 mm 0.0 W/m2 CLR
22:56 -16.2 °C -17.1 °C 34462.7 hPa Calm     89 % 0 mm 0.0 W/m2 CLR
23:01 -16.3 °C -17.3 °C 34462.7 hPa Calm     89 % 0 mm 0.0 W/m2 CLR
23:06 -16.5 °C -17.4 °C 34462.7 hPa Calm     89 % 0 mm 0.0 W/m2 CLR
23:11 -16.6 °C -17.5 °C 34462.7 hPa Calm     89 % 0 mm 0.0 W/m2 CLR
23:16 -16.7 °C -17.6 °C 34462.7 hPa Calm     89 % 0 mm 0.0 W/m2 CLR
23:21 -16.7 °C -17.6 °C 34462.7 hPa Calm     90 % 0 mm 0.0 W/m2 CLR
23:26 -16.7 °C -17.6 °C 34462.7 hPa Calm     90 % 0 mm 0.0 W/m2 CLR
23:31 -16.8 °C -17.6 °C 34462.7 hPa Calm     90 % 0 mm 0.0 W/m2 CLR
23:36 -16.8 °C -17.6 °C 34462.7 hPa Calm     90 % 0 mm 0.0 W/m2 CLR
23:41 -16.8 °C -17.7 °C 34462.7 hPa Calm     90 % 0 mm 0.0 W/m2 CLR
23:46 -16.9 °C -17.7 °C 34462.7 hPa Calm     90 % 0 mm 0.0 W/m2 CLR
23:51 -16.9 °C -17.7 °C 34462.7 hPa Calm     90 % 0 mm 0.0 W/m2 CLR
23:57 -17 °C -17.8 °C 34476.3 hPa Calm     90 % 0 mm 0.0 W/m2 CLR
Lo Temps de Massalio
Compliments of Weather Underground - 1.25 mb